Regional Weather Roundup
Issued by NWS

Home | Current Version | Previous Version | Text Only | Print | Product List | Glossary On
Versions: 1 2 3 4 5 6 7 8 9 10 11 12 13 14 15 16 17 18 19 20 21 22 23 24 25 26 27 28 29 30 31 32 33 34 35 36 37 38 39 40 41 42 43 44 45 46 47 48 49 50
000
ASUS44 KJAN 260110
RWRMS

MISSISSIPPI HOURLY WEATHER ROUNDUP
NATIONAL WEATHER SERVICE JACKSON MS
800 PM CDT MON MAY 25 2015

NOTE: "FAIR: INDICATES FEW OR NO CLOUDS BELOW 12,000 FEET WITH NO
SIGNIFICANT WEATHER AND/OR OBSTRUCTIONS TO VISIBILITY.

MSZ001>002-007>008-010>013-018>021-025>028-034>036-260200-
NORTHWEST MISSISSIPPI

CITY           SKY/WX    TMP DP  RH WIND       PRES   REMARKS
CLARKSDALE       N/A     77  73  88 CALM      30.00S
CLEVELAND      FAIR      75  71  87 S14G24    29.99R
GREENWOOD      CLOUDY    75  70  84 SE8       30.02R
GREENVILLE     CLOUDY    76  70  82 SE13      29.98R
OLIVE BRANCH   MOCLDY    75  75 100 SE9G16    30.02R
OXFORD         FAIR      73  68  83 S8G17     30.05R
TUNICA         MOCLDY    77  70  78 SE13      30.01R
$$

MSZ003>006-009-014>017-022>024-029>033-037>039-260200-
NORTHEAST MISSISSIPPI

CITY           SKY/WX    TMP DP  RH WIND       PRES   REMARKS
COLUMBUS AFB   NOT AVBL
CORINTH        MOCLDY    73  68  83 SE6G13    30.06R
GOLDN TRIANGLE CLEAR     73  66  78 SE9       30.06R
STARKVILLE     FAIR      72  68  88 SE8       30.07R
TUPELO         CLOUDY    74  67  78 S8        30.06R
$$

MSZ040-058-260200-
CENTRAL MISSISSIPPI

CITY           SKY/WX    TMP DP  RH WIND       PRES   REMARKS
JACKSON INTL   CLOUDY    74  70  87 E7        30.03R
JACKSON HAWKNS CLOUDY    73  69  87 E6        30.03R
MERIDIAN KEY   CLOUDY    72  67  84 SE5       30.06F
MERIDIAN NAS   CLOUDY    71  67  87 SE6       30.07F
RAYMOND          N/A    N/A N/A N/A MISG        N/A
VICKSBURG      LGT RAIN  73  70  90 S3        29.98F
$$

MSZ059>079-260200-
SOUTH MISSISSIPPI

CITY           SKY/WX    TMP DP  RH WIND       PRES   REMARKS
BROOKHAVEN       N/A     73  73 100 SE3       30.03S
HATTIESBURG    CLOUDY    75  73  93 E3        30.05R
MCCOMB         MOCLDY    73  71  93 SE9       30.02F
NATCHEZ        PTCLDY    73  70  88 S9        29.99R
PINE BELT      CLOUDY    73 N/A N/A SE9       30.05S
$$

MSZ080>082-260200-
COASTAL MISSISSIPPI

CITY           SKY/WX    TMP DP  RH WIND       PRES   REMARKS
BAY ST LOUIS   TSTM      72  64  78 MISG      30.04S
BILOXI         CLOUDY    79  73  82 SE12G18   30.04F
PASCAGOULA     CLOUDY    73  71  93 E7        30.07S
GULFPORT       CLOUDY    80  76  87 SE16      30.04R
$$


USA.gov is the U.S. government's official web portal to all federal, state and local government web resources and services.